Dewpoint
74 71 69 68 69 68 68 69 61 58 61 51 45 44 44 48 49 50 50 52 51 53 53 54 53 53 54 55 55 56 59 61 57 56 57 67 73 73 73 74 73 73 74 74 74 75 75 75 75 76 75 75 75 76 76 76 75 74 74 74 75 76 76 77 77 77 77 77 77 77 77 77 77 77 77 77 77 76 76 76 76 76 76 75 75 75 75 75 75 74 74 75 75 75 75 75 75
68 68 67 68 68 70 65 66 59 51 48 49 45 45 46 49 54 50 50 51 52 52 53 53 52 53 53 55 55 56 58 61 63 63 66 70 71 73 73 74 73 73 73 73 74 74 74 75 75 75 75 76 76 75 75 75 75 74 75 76 75 76 76 76 77 77 77 77 77 77 77 77 77 77 77 77 77 77 77 76 76 76 76 75 76 76 75 76 75 75 74 74 74 75 75 75 75
67 67 67 68 67 65 63 61 54 40 44 44 46 47 49 51 50 50 51 51 52 52 52 52 53 53 54 55 54 55 59 62 64 66 67 69 69 70 72 73 73 74 73 72 73 73 74 74 75 75 75 76 76 76 75 75 75 75 75 75 76 76 76 77 76 76 76 76 76 77 77 77 77 77 77 77 77 77 76 76 76 76 76 76 76 75 75 75 75 75 75 75 74 75 74 74 75
68 69 65 66 68 63 59 58 55 39 41 44 47 48 47 49 50 51 51 51 51 52 52 52 54 55 54 54 56 58 59 60 62 65 67 68 69 70 72 72 74 73 72 73 74 74 74 74 74 75 75 76 76 76 76 75 75 75 75 76 76 76 76 76 76 76 76 76 76 76 76 76 77 77 76 76 76 76 76 76 76 76 76 76 76 75 75 75 74 75 75 75 75 74 74 74 74
68 67 66 65 64 59 57 43 36 38 38 42 46 48 49 49 50 51 52 52 54 53 51 51 54 57 57 56 57 57 58 62 65 67 66 69 69 71 71 71 71 72 72 74 74 74 74 74 75 75 75 76 75 75 75 75 75 76 76 76 76 76 76 76 76 76 76 75 76 76 76 76 76 76 76 76 76 76 76 76 76 76 76 76 76 75 75 75 74 74 75 75 74 74 74 74 74
68 64 64 64 61 59 54 37 36 37 40 42 46 48 48 49 50 50 52 53 53 52 53 52 51 55 58 59 58 57 60 65 63 64 66 70 69 69 71 72 71 71 73 74 75 74 74 74 75 75 75 75 75 75 76 76 75 76 76 77 77 76 76 76 76 76 75 75 76 76 76 76 76 76 76 76 76 76 76 76 76 76 76 76 75 75 75 75 75 74 74 74 74 74 73 73 74
63 62 61 61 60 60 40 33 32 36 40 43 45 47 49 50 50 51 52 52 53 53 54 51 51 53 56 58 59 61 62 63 62 64 65 69 69 69 69 71 70 72 72 73 75 74 75 75 75 75 75 76 76 75 75 75 75 76 76 76 76 76 76 76 75 75 75 76 76 76 76 76 76 76 76 76 76 76 76 76 76 76 76 76 76 75 75 74 75 74 74 74 73 73 73 73 73
64 64 57 57 49 57 31 27 31 35 40 43 47 49 50 50 51 51 51 51 50 50 50 52 54 53 55 61 60 64 64 64 64 65 66 68 69 69 68 71 70 70 71 73 74 74 76 75 75 75 75 75 76 76 76 76 76 76 76 77 76 76 76 76 76 76 76 76 75 76 76 76 76 76 76 75 76 76 76 76 75 76 76 75 76 76 75 75 75 75 74 73 73 73 73 72 73
62 57 56 50 48 31 31 32 33 36 39 43 48 51 56 51 51 51 52 51 52 50 51 51 50 50 58 59 60 63 64 64 65 68 66 67 68 68 70 69 71 71 71 72 72 74 75 75 75 75 75 75 75 76 77 76 76 76 76 76 77 76 76 76 76 76 76 75 75 76 76 76 76 76 75 76 76 76 76 75 76 76 76 75 75 75 75 75 75 75 75 74 74 74 73 72 73
58 55 50 45 36 34 29 30 30 35 39 42 44 48 49 51 51 51 50 51 51 51 51 51 53 53 59 58 60 61 63 64 65 65 66 68 69 68 69 69 69 68 72 72 72 74 75 76 75 75 75 75 76 76 76 76 76 76 76 76 76 76 76 76 75 75 76 76 76 75 75 75 75 75 75 76 76 76 76 76 76 76 75 75 75 75 75 74 75 75 75 75 74 74 74 73 73
59 54 48 45 35 33 34 32 35 36 37 41 44 47 49 50 50 50 51 50 52 52 51 52 53 53 54 58 60 63 64 64 64 64 65 66 68 68 70 70 68 68 68 68 73 74 75 75 76 75 75 76 75 76 76 76 76 76 76 76 76 76 76 76 75 75 76 76 75 75 76 75 75 75 76 76 76 76 75 75 76 76 75 75 75 75 75 75 74 74 74 74 74 74 74 74 74
58 54 48 40 36 37 31 32 32 35 37 37 40 46 47 48 49 48 48 50 51 50 50 52 51 54 58 59 61 63 63 63 64 65 65 65 67 68 70 68 68 69 70 70 71 74 75 76 75 76 76 76 75 75 76 76 76 76 76 76 76 75 76 76 76 76 75 75 75 75 75 75 75 75 75 75 75 75 75 76 76 76 75 75 74 75 75 75 74 74 74 73 74 73 74 74 74
50 46 49 37 37 37 35 36 34 36 37 37 39 42 45 46 47 47 47 49 50 49 50 52 53 55 55 58 62 62 62 63 64 65 65 65 65 66 70 69 69 72 71 71 71 72 75 75 75 76 76 76 76 76 76 76 76 76 76 76 76 76 76 76 75 75 75 75 75 75 75 75 75 75 76 75 75 74 75 76 76 75 75 75 75 74 75 74 74 74 74 74 74 74 74 74 74
50 47 49 38 36 37 37 37 37 34 36 40 41 43 44 44 45 46 47 47 48 48 52 52 52 54 57 59 61 61 62 63 64 64 65 65 65 66 69 68 69 70 72 72 73 73 74 72 71 73 76 75 75 76 76 76 76 76 76 76 76 76 75 75 75 75 75 75 75 75 76 76 76 76 76 75 74 74 75 76 75 75 75 75 74 74 74 74 74 74 74 74 73 73 74 73 74
48 49 41 40 35 36 37 38 36 35 35 42 43 45 44 45 45 44 45 45 48 51 51 51 53 55 54 56 59 60 62 63 64 64 65 65 66 67 70 70 69 70 68 69 72 74 73 74 73 74 76 76 77 75 75 77 76 76 76 76 76 76 75 75 75 75 75 75 76 76 76 76 76 76 75 75 74 75 75 75 75 75 75 74 74 73 73 74 74 74 74 73 73 73 73 73 73
47 45 46 40 34 33 32 37 37 37 37 42 45 45 44 44 45 45 47 48 50 50 50 50 53 54 54 54 58 61 62 63 64 65 66 67 68 68 68 69 69 69 71 71 72 73 73 73 74 74 75 76 76 76 76 77 77 77 76 76 76 76 76 76 76 75 75 76 76 76 76 76 76 75 75 74 74 75 75 74 75 75 74 75 74 74 74 74 75 74 74 74 73 73 73 73 74
47 45 41 45 37 34 33 37 47 38 40 42 45 45 41 43 46 49 48 48 48 48 49 50 52 53 51 55 58 62 63 64 66 65 66 69 68 66 67 68 68 69 69 70 74 74 74 73 72 74 75 75 75 75 74 76 76 77 76 76 76 76 76 75 76 76 76 76 76 76 76 75 76 75 75 75 75 75 77 76 75 74 75 74 74 75 75 75 75 75 75 74 74 74 74 75 75
45 44 41 50 34 33 30 36 38 37 45 43 44 44 40 43 45 45 48 47 49 48 49 48 51 52 54 56 61 62 64 64 65 65 65 66 67 65 65 67 67 68 69 70 72 75 74 73 73 73 74 75 75 74 74 74 76 76 75 76 76 76 76 76 76 76 75 76 76 76 76 75 74 77 74 74 74 76 76 76 75 75 75 75 75 75 76 76 76 76 75 75 74 75 75 75 76
40 42 40 48 32 33 33 37 37 40 41 42 44 44 42 39 44 44 43 45 46 47 47 50 49 55 57 58 61 62 64 64 63 64 64 64 65 65 65 67 66 67 67 69 71 72 74 73 73 72 73 74 74 73 74 74 75 75 76 75 75 76 76 76 76 76 76 76 75 75 78 76 76 76 76 75 74 74 75 76 76 75 76 76 76 76 76 76 76 77 76 76 76 75 76 77 76
38 39 53 37 32 35 36 38 37 42 41 42 42 43 42 38 42 42 42 43 45 46 47 48 52 55 57 59 60 61 63 63 64 64 63 65 64 64 65 64 65 67 66 67 70 72 73 73 73 73 73 74 73 73 73 73 73 75 75 74 73 75 75 75 77 76 76 76 75 76 77 75 76 77 75 77 75 74 76 76 76 76 76 76 76 76 77 77 77 77 77 77 77 75 75 74 74
38 37 36 34 32 34 35 36 39 40 42 43 42 42 42 36 41 41 40 40 43 45 46 48 52 54 57 58 59 60 62 63 63 63 63 64 64 63 65 65 64 66 66 67 70 72 73 73 72 73 73 74 73 73 73 72 72 75 74 73 73 73 74 76 76 75 76 77 77 76 76 74 75 74 76 72 70 73 77 74 76 76 75 76 77 75 73 74 77 76 75 76 74 74 73 72 71
34 35 37 36 34 32 34 34 37 41 42 43 43 40 40 40 38 41 39 39 38 42 45 49 53 55 58 58 59 61 62 63 63 63 63 64 64 65 64 65 65 65 67 68 69 71 71 72 72 72 72 74 73 71 71 72 72 73 73 72 72 74 74 75 76 74 77 77 77 73 75 73 73 72 73 74 74 73 72 72 74 74 74 75 75 73 71 74 73 71 72 72 71 71 70 72 72
30 34 34 36 34 33 32 34 37 38 41 42 42 43 41 40 37 40 38 43 38 43 44 50 53 56 57 58 59 59 60 61 60 60 61 62 65 64 64 65 65 66 67 68 69 70 71 72 72 72 71 73 73 73 71 72 72 73 72 73 73 73 73 74 75 75 75 75 74 73 71 70 70 70 72 73 73 73 72 70 72 74 74 72 73 73 72 73 72 71 71 72 71 71 70 71 72
28 30 33 34 34 33 32 33 35 38 40 42 43 43 40 41 36 40 38 42 40 43 43 51 53 55 56 57 58 57 59 59 59 60 60 59 61 64 64 65 66 67 68 68 69 69 70 70 72 72 71 72 74 73 72 71 73 72 71 72 72 72 73 72 71 71 74 74 75 73 72 71 69 69 72 71 72 72 71 72 73 71 74 71 73 73 72 71 71 71 72 72 71 72 70 71 70
23 28 31 32 32 33 31 32 34 37 40 42 42 41 42 42 40 40 39 39 41 43 45 49 53 54 55 57 57 58 60 59 58 59 59 60 60 61 62 63 65 67 67 68 69 68 70 70 71 71 71 73 73 73 72 71 71 72 72 70 70 72 72 72 71 73 73 73 73 75 73 70 70 71 71 71 72 71 72 73 73 73 73 72 74 71 73 72 72 71 73 72 72 72 72 72 71
24 28 30 32 31 31 29 29 34 36 40 41 41 42 43 43 43 39 41 38 43 44 46 49 51 53 54 55 56 58 60 58 58 59 59 59 59 59 60 61 62 64 65 67 67 68 69 69 70 70 72 73 72 71 73 72 71 71 72 73 71 73 72 71 73 71 71 71 72 73 72 72 70 69 70 71 71 72 73 73 73 72 73 74 73 73 73 73 73 73 72 72 71 71 72 72 71
24 27 30 31 30 28 28 28 33 36 37 39 41 41 41 44 42 40 42 42 44 44 47 50 50 51 52 54 54 58 58 57 57 58 59 59 60 60 60 60 61 63 64 65 65 67 68 68 69 71 72 74 72 71 72 73 73 72 73 72 72 73 71 73 73 72 71 70 72 75 75 74 72 70 71 73 72 73 75 74 73 73 75 73 74 72 74 74 72 73 73 72 73 73 71 71 69
23 28 28 28 28 28 28 28 34 34 36 39 41 40 42 44 43 41 43 42 43 45 47 49 49 51 52 52 54 59 59 59 59 58 58 59 60 60 61 62 62 63 64 64 65 67 65 65 67 69 70 73 73 71 73 73 74 73 74 72 72 73 74 73 72 71 72 71 73 76 76 75 75 74 76 75 73 74 74 74 72 73 72 75 75 72 73 74 73 72 74 75 76 74 72 70 69
22 26 26 27 28 29 29 28 33 35 37 39 40 41 41 43 40 42 45 44 42 44 46 48 49 50 52 52 54 59 58 59 58 58 57 59 60 60 60 61 61 63 63 64 65 65 64 65 66 68 70 73 73 71 71 72 73 73 73 73 73 71 73 73 71 71 73 73 75 76 76 77 77 76 77 75 74 73 72 75 75 73 74 75 73 75 76 76 74 72 73 73 73 73 70 68 67
23 25 26 28 28 29 30 29 34 34 39 38 40 40 41 41 42 43 47 45 43 42 45 47 49 50 52 51 53 59 58 59 58 58 58 59 60 60 60 60 62 62 64 65 65 65 64 64 64 66 68 71 74 72 73 73 73 73 73 72 73 73 70 70 71 72 73 73 75 76 77 78 78 76 77 77 75 73 73 74 74 73 73 75 74 76 74 73 73 73 72 73 70 70 68 66 63
22 24 25 27 27 27 30 30 35 33 39 39 39 39 37 40 41 43 47 47 44 42 43 45 47 49 51 51 54 58 58 61 58 58 58 59 60 60 61 61 62 63 64 65 65 67 64 65 64 65 68 70 72 72 72 73 72 71 72 72 71 73 71 70 69 71 73 73 74 75 77 79 78 78 78 78 76 75 73 74 76 73 75 75 74 74 74 74 74 72 72 70 70 67 64 65 63
23 22 24 27 27 27 30 32 35 33 40 40 38 38 33 37 40 44 47 46 45 45 43 44 47 47 50 51 52 56 58 60 59 57 57 58 59 60 61 62 62 63 65 66 65 67 65 66 68 65 68 70 72 73 73 73 72 72 72 71 73 74 70 70 70 72 72 72 73 75 77 78 79 79 79 78 77 76 74 72 74 75 76 75 75 75 75 72 73 72 72 70 68 65 65 62 61
23 23 25 26 27 27 30 32 35 34 40 40 40 36 35 36 41 44 47 46 45 46 44 44 46 47 50 51 51 55 57 58 60 57 58 58 60 61 62 63 63 65 64 66 67 68 68 67 69 66 67 69 72 73 74 74 74 74 74 73 71 74 70 70 70 72 73 73 72 72 76 78 78 80 79 79 77 76 74 73 72 75 76 74 75 74 70 69 68 66 69 68 68 67 60 55 59
25 25 26 27 25 25 29 33 35 35 39 38 40 38 36 37 41 44 47 46 46 45 45 45 45 47 50 52 52 54 56 58 60 59 58 59 60 62 61 65 65 65 66 66 67 68 69 68 69 69 69 69 71 73 74 73 74 75 74 74 74 74 73 71 72 72 73 71 73 73 76 77 78 80 80 79 78 77 76 74 73 75 75 75 72 70 68 67 68 67 68 68 67 65 60 62 62
24 24 25 27 27 24 28 31 34 35 37 40 40 38 38 37 40 45 47 47 47 47 47 46 45 46 49 50 51 53 55 58 59 60 58 60 59 61 62 64 64 65 65 66 68 70 70 69 70 71 69 70 70 74 75 74 74 76 74 75 75 75 75 73 72 72 72 73 71 74 78 77 78 80 80 80 78 76 74 74 75 76 71 71 70 67 65 66 67 68 67 66 66 66 65 66 66
22 25 25 26 25 24 26 30 35 35 37 38 39 37 38 38 42 46 47 47 47 48 49 48 47 47 50 50 50 51 54 56 59 60 59 59 60 62 62 63 64 65 66 67 69 70 71 71 71 73 72 70 70 73 75 73 73 73 73 74 74 74 75 74 75 73 73 73 72 73 77 77 78 79 79 78 76 75 73 72 71 71 69 68 67 65 64 64 67 67 65 63 66 67 67 67 66
23 24 27 26 24 24 25 29 33 35 36 37 38 39 38 38 42 46 48 48 49 48 48 49 49 48 49 50 50 51 54 54 57 59 58 59 59 63 64 64 65 66 68 67 69 70 72 70 71 73 73 73 71 72 73 73 71 72 73 72 72 74 74 74 74 74 73 72 74 74 77 76 78 78 78 77 75 75 74 71 71 70 68 67 68 67 66 67 66 66 63 67 67 67 65 66 66
22 23 24 24 24 22 26 28 32 34 34 36 39 38 40 41 41 44 49 47 47 47 49 50 49 49 50 53 53 53 54 53 55 58 59 59 59 61 63 64 66 66 68 68 69 70 72 72 71 72 73 72 71 71 72 72 72 71 71 71 72 70 72 72 73 74 70 70 74 75 75 74 75 77 78 77 76 74 73 71 72 70 67 69 69 68 66 66 66 65 66 66 68 66 66 63 66
20 22 23 23 24 24 25 28 31 34 34 35 36 37 38 40 40 43 47 48 48 47 49 50 51 51 53 52 53 54 54 56 54 56 58 58 59 60 63 64 65 65 66 67 69 70 72 72 72 73 73 73 71 72 72 73 72 72 71 70 70 70 72 73 72 72 72 70 72 74 76 75 75 78 77 77 74 73 72 71 71 70 69 69 69 68 67 66 67 65 66 66 65 66 63 65 66
19 22 23 24 24 22 22 26 29 34 34 34 39 35 37 41 43 43 45 48 50 49 47 48 50 52 53 52 54 56 56 56 55 56 57 57 58 60 63 64 65 65 66 67 68 69 71 72 73 73 74 74 73 72 73 74 74 74 74 73 72 71 70 72 74 72 72 71 69 72 74 75 76 74 74 77 74 73 72 71 70 70 71 70 69 64 65 66 66 66 65 67 66 65 61 62 65
19 21 21 24 22 22 23 27 30 34 37 37 35 37 38 39 39 40 44 46 48 49 47 49 51 52 53 53 55 57 56 58 57 56 57 58 60 60 63 65 64 65 66 68 68 69 71 72 73 73 74 74 74 73 73 74 74 74 74 74 74 74 72 70 70 70 70 72 70 70 71 73 75 75 73 73 72 73 72 72 71 70 70 70 67 64 64 64 66 65 66 67 66 63 63 61 64
18 20 20 22 22 22 23 28 30 32 34 36 35 39 38 41 40 39 42 42 46 50 51 49 51 52 54 54 55 56 56 57 59 59 58 59 59 61 63 65 65 65 66 68 68 70 71 73 74 75 74 74 74 74 74 75 74 74 74 74 73 73 72 71 70 70 68 69 66 67 70 72 73 74 73 73 72 72 73 72 71 70 69 69 66 65 67 67 64 66 66 66 66 66 66 60 62
15 18 21 21 21 22 24 24 32 33 32 35 37 35 36 39 39 39 42 43 44 48 51 50 51 53 53 54 54 54 55 56 59 59 58 58 60 61 63 65 66 65 67 68 69 71 73 74 75 75 74 74 74 75 75 76 75 75 74 74 73 72 72 72 73 71 69 67 67 69 70 72 74 73 72 72 71 72 71 71 71 70 68 68 66 67 67 65 64 66 65 66 67 67 66 63 62
14 18 21 20 18 20 23 24 27 31 32 33 36 36 35 36 36 40 39 41 43 46 49 49 47 53 51 53 53 55 54 56 57 60 59 59 60 61 62 64 66 65 66 67 69 71 73 74 75 75 75 75 75 75 75 76 75 75 75 74 73 72 71 72 73 73 72 71 69 69 71 70 73 73 71 73 72 70 70 69 69 69 67 65 66 66 67 66 66 67 67 67 68 68 67 66 62
15 18 16 18 19 20 22 24 26 29 30 33 32 35 39 36 37 38 38 39 41 44 46 46 47 50 54 54 52 54 54 56 57 58 59 59 59 60 61 64 66 66 65 66 69 71 72 74 75 76 75 75 75 76 76 76 76 75 75 74 73 73 72 72 71 72 72 73 71 71 71 71 72 74 73 71 71 69 68 68 69 69 67 66 68 66 67 67 66 67 68 68 68 68 67 67 65
15 16 17 18 19 19 20 23 25 28 33 34 33 31 34 35 36 35 37 37 40 42 44 46 51 51 54 54 55 55 56 58 57 58 60 60 59 58 60 62 65 65 65 68 68 69 71 73 75 76 76 75 75 76 76 76 76 76 75 74 74 74 73 72 70 71 73 73 72 72 73 73 71 72 72 72 72 69 68 69 68 68 67 65 67 67 65 67 67 68 68 68 68 67 68 67 65
10 13 15 17 17 18 23 24 29 31 31 34 30 29 30 33 36 35 37 35 38 40 43 45 50 51 51 52 54 54 55 57 57 59 60 61 59 58 60 62 65 66 65 66 67 69 70 73 75 76 76 76 75 75 76 76 76 75 75 75 74 74 74 73 72 71 72 73 74 73 73 73 73 71 70 71 69 69 68 68 67 67 67 67 68 68 67 66 64 65 68 68 68 67 67 67 65
8 11 14 17 23 24 27 24 29 27 28 32 29 28 29 30 34 34 37 38 36 38 39 43 45 47 48 52 50 50 52 56 57 58 59 61 61 59 59 62 65 67 66 66 67 68 70 72 74 76 76 76 76 75 76 75 75 75 75 75 75 75 74 73 73 72 72 73 73 73 73 72 73 71 71 68 69 66 69 68 68 67 67 68 68 69 68 67 64 64 66 68 68 68 67 67 66
7 11 17 17 23 27 21 24 21 23 25 29 26 27 27 30 35 35 34 33 36 39 37 36 39 43 46 46 51 51 50 55 58 59 60 60 60 58 58 63 66 67 67 67 67 67 69 72 74 75 76 77 76 75 76 76 75 75 75 75 75 75 74 74 74 73 73 73 73 73 72 72 72 71 69 68 67 68 69 69 67 66 68 68 69 69 68 68 66 64 65 67 67 67 67 67 66
5 12 16 20 21 21 22 20 23 22 22 23 26 28 28 31 33 36 34 34 35 36 38 36 36 40 43 49 52 49 52 54 57 57 58 61 61 58 60 62 66 67 67 66 67 69 70 71 74 75 76 77 77 77 76 77 76 75 75 75 75 75 75 74 73 72 72 73 73 73 71 70 70 69 68 69 68 68 67 68 68 67 69 69 69 69 68 68 67 65 66 66 66 68 67 67 66
6 9 12 20 23 20 24 21 21 20 24 22 22 27 31 29 32 32 33 35 36 34 33 38 37 35 41 47 54 52 51 54 57 59 57 58 60 61 59 61 64 66 66 66 66 68 70 71 74 75 76 77 77 77 77 77 76 76 76 75 75 75 74 74 74 73 73 73 73 73 73 70 68 69 69 70 70 69 68 69 68 67 68 69 69 69 67 67 67 66 66 66 67 66 68 67 66
2 7 12 17 22 25 19 25 24 24 22 20 28 27 31 32 35 36 34 32 35 33 34 34 34 34 35 40 45 44 48 52 55 58 58 59 61 62 60 61 62 65 66 66 67 68 69 71 73 75 76 77 77 78 77 77 77 76 77 77 76 75 75 75 75 74 74 74 74 73 73 72 71 71 71 71 69 68 68 68 69 67 69 68 69 69 68 67 68 67 67 67 67 64 67 67 67
9 11 13 14 18 18 23 27 23 22 21 24 28 26 28 29 28 30 34 33 33 34 31 28 32 32 40 38 47 48 47 50 55 57 59 61 60 62 62 62 62 64 65 66 70 70 71 71 73 75 76 77 77 78 77 77 77 77 77 77 76 76 75 74 72 73 72 73 74 74 72 72 72 71 70 71 70 69 69 68 68 67 68 69 69 68 68 67 68 67 66 67 66 64 66 66 66
3 6 8 13 13 16 25 21 26 22 19 22 17 22 25 24 26 32 33 31 32 33 33 26 32 33 35 38 41 49 50 54 57 59 61 61 61 61 61 61 63 64 66 69 71 71 71 71 73 75 76 77 77 77 77 77 77 77 77 77 77 76 75 74 73 73 74 73 74 74 73 72 71 70 70 70 71 69 69 68 68 68 68 68 68 67 68 68 68 67 67 67 66 66 66 67 66
-1 -0 4 5 14 16 21 25 20 20 21 22 22 20 21 25 30 32 33 31 31 34 35 32 28 29 36 39 45 52 56 55 55 56 60 61 61 61 63 61 61 65 70 71 71 71 71 71 73 74 75 76 77 76 77 77 77 76 76 77 77 77 76 75 75 74 74 74 73 73 72 72 71 71 71 71 71 70 69 68 68 68 68 68 68 68 68 68 68 67 66 65 66 67 66 66 66
-3 -4 3 7 11 17 19 22 26 26 20 22 21 20 20 29 28 31 32 34 34 31 32 29 27 28 30 40 43 48 54 56 55 56 57 60 61 61 61 60 61 65 68 69 68 69 69 70 73 74 74 76 77 77 77 77 77 76 76 77 77 78 77 76 76 75 74 74 74 72 72 71 71 70 70 70 70 70 69 68 66 66 65 66 67 67 67 68 68 67 66 64 64 66 65 65 64
-6 -7 -1 7 9 8 13 16 21 20 23 22 23 19 24 28 25 28 33 34 34 32 31 34 30 29 28 33 38 45 50 54 56 57 57 59 61 61 61 61 60 63 67 67 66 68 68 68 70 71 74 74 74 76 76 77 77 77 77 77 77 77 77 76 76 75 75 74 74 74 73 72 73 71 71 70 70 69 69 68 67 67 66 67 68 67 67 68 68 67 66 66 65 66 65 65 65
-7 -8 -3 1 9 12 14 18 16 16 19 23 22 23 30 24 21 29 26 32 29 32 32 29 32 28 39 32 37 42 49 57 57 57 56 57 60 61 61 62 60 60 63 65 64 65 65 66 68 69 69 71 71 75 76 77 77 76 76 77 77 77 77 77 76 75 75 75 75 74 74 73 72 72 72 70 70 68 68 68 66 68 69 68 68 69 65 66 67 67 66 64 65 66 66 65 65